STARLINK-36483, 67330

Orbit data source: Space-Track

STARLINK-36483, 67330 is a payload satellite owned by SpaceX/Seattle (US) in LEO that was launched on Sun, 04 Jan 2026 UTC via an FALCON 9 launch vehicle from the Air Force Eastern Test Range (AFETR). Payload-class satellites include a variety of spacecraft equipped with specific instruments for various scientific and technological missions. These include communications satellites like Starlink; space stations such as the ISS; scientific satellites like the Hubble; Earth observation satellites from companies like Planet Labs, Umbra, and HawkEye 360; GPS; miniature CubeSats for education and research; and military/defense satellites.

Loading next visibility...
Identifier
67330, 2026-002AB
Orbit
LEO
Country
Flag of USUS
Related business
Manufacturer
SpaceX/Seattle
Mission
Operational Commercial Communications
Bus & Motor
STARLINK V2MO, Unknown motor
Mass
575 kg wet, ~530 kg dry
Launch date (UTC)
2026-01-04 (2 months ago)
Launch vehicle
FALCON 9
Launch site
Air Force Eastern Test Range (AFETR)
Object type
Payload
Rocket body
Debris
Shape & HBR
Box + 2 Pan, 17.7 m
Radar Cross Section
36.964 m²

Expand to show TLE details & history
Last TLE update: 9 hours ago

TLE from 9 hours ago
0 STARLINK-36483
1 67330U 26002AB  26062.85611617  .00029566  00000-0  10791-2 0  9998
2 67330  42.9964 358.4731 0000668 161.7901 198.2975 15.27595900 10343
Epoch: 2026-03-03T20:32Z
TLE epoch observation values (Epoch: 2026-03-03T20:32:48.437Z)
Latitude
0.00003°
Longitude
-111.35787°
Altitude
483.212 km
Speed
7.625 km/s
True Right ascension
23h 53m 53s
True Declination
0° 00' 00"
Sunlit
Object was in daylight at epoch
Visualization orbit readout
Latitude
Unknown
Longitude
Unknown
Altitude
Unknown
Speed
Unknown
Apparent Right ascension
Unknown
Apparent Declination
Unknown
Sunlit
N/A
Visualization observer readout
Local Sidereal Time
09:13:28
Azimuth
Unknown
Elevation
Unknown
Doppler factor
Unknown
Orbital elements
Apogee altitude
485.406 km
Perigee altitude
484.489 km
Semi-major axis
6,863.084 km
Eccentricity
0.00007
Inclination
42.9964°
RAAN
358.4731°
Arg. of periapsis
161.7901°
True anomaly
198.2951°
Mean anomaly
198.2975°
Eccentric anomaly
198.2963°
Mean motion
3.81737 °/min
Orbital period
94.31 mins
BSTAR
0.0010791
Loading maneuver chart data...
Computing Atmospheric mass density...
Loading historical data...
Loading historical data...
Loading historical data...
Loading historical data...
Loading historical data...
Loading historical data...
Loading historical data...

Documentation

Showing up to 5 results
|